Kinston, NC

4:45 AM EST on January 17, 2018 (GMT -0500)
Kinston Regional Jetport / Stallings Field

Weather History for KISO - July, 2013

Change the Weather History Date:

Saturday, July 20, 2013

  Actual Average Record
Temperature  
Mean Temperature 82 °F -  
Max Temperature 91 °F 87 °F 103 °F (1977)
Min Temperature 74 °F 70 °F 59 °F (1976)
Cooling Degree Days 18    
Growing Degree Days 32 (Base 50)    
Moisture  
Dew Point 72 °F    
Average Humidity 78    
Maximum Humidity 94    
Minimum Humidity 49    
Precipitation  
Precipitation 0.00 in - - ()
Sea Level Pressure  
Sea Level Pressure 30.03 in    
Wind  
Wind Speed 10 mph (SSW)    
Max Wind Speed 15 mph    
Max Gust Speed 20 mph    
Visibility 10 miles    
Events      
Averages and records for this station are not official NWS values.
T = Trace of Precipitation, MM = Missing Value Source: NWS Daily Summary

Daily Weather History Graph

Daily Weather History Graph

Search for Another Location

Airport or City:

Trip Planner

Search our weather history database for the weather conditions in past years. The results will help you decide how hot, cold, wet, or windy it might be!

Date:

Astronomy

Jul. 20, 2013 Rise Set
Actual Time 6:10 AM EDT 8:22 PM EDT
Civil Twilight 5:41 AM EDT 8:51 PM EDT
Nautical Twilight 5:06 AM EDT 9:26 PM EDT
Astronomical Twilight 4:28 AM EDT 10:04 PM EDT
Moon 6:24 PM EDT (7/20) 3:48 AM EDT (7/20)
Length of Visible Light 15h 09m
Length of Day
14h 12m
Waxing Gibbous, 93% of the Moon is Illuminated
Jul 20
Waxing Gibbous
Jul 22
Full
Jul 29
Last Quarter
Aug 6
New
Aug 14
First Quarter

Hourly Weather History & Observations

Time (EDT) Temp. Heat Index Dew Point Humidity Pressure Visibility Wind Dir Wind Speed Gust Speed Precip Events Conditions
12:15 AM 78.4 °F - 72.5 °F 82% 30.07 in 10.0 mi SSW 10.4 mph - N/A   Clear
12:35 AM 78.1 °F - 72.5 °F 83% 30.07 in 10.0 mi SSW 9.2 mph - N/A   Clear
12:55 AM 77.9 °F - 72.7 °F 84% 30.06 in 10.0 mi SSW 10.4 mph - N/A   Clear
1:15 AM 77.5 °F - 72.9 °F 85% 30.06 in 10.0 mi SSW 10.4 mph - N/A   Clear
1:35 AM 77.4 °F - 72.9 °F 86% 30.05 in 10.0 mi SSW 9.2 mph - N/A   Clear
1:55 AM 77.0 °F - 73.0 °F 88% 30.04 in 10.0 mi SSW 9.2 mph - N/A   Clear
2:15 AM 76.6 °F - 73.0 °F 89% 30.04 in 10.0 mi SSW 9.2 mph - N/A   Clear
2:35 AM 76.5 °F - 73.0 °F 89% 30.04 in 10.0 mi SSW 10.4 mph - N/A   Clear
2:55 AM 76.3 °F - 73.0 °F 90% 30.04 in 10.0 mi SSW 8.1 mph - N/A   Clear
3:15 AM 76.1 °F - 73.0 °F 90% 30.04 in 10.0 mi SSW 9.2 mph - N/A   Clear
3:35 AM 76.1 °F - 72.9 °F 90% 30.04 in 10.0 mi SSW 8.1 mph - N/A   Clear
3:55 AM 75.7 °F - 72.7 °F 90% 30.05 in 10.0 mi SSW 6.9 mph - N/A   Clear
4:15 AM 75.6 °F - 72.5 °F 90% 30.05 in 10.0 mi SSW 8.1 mph - N/A   Clear
4:35 AM 75.6 °F - 72.7 °F 91% 30.05 in 10.0 mi SSW 9.2 mph - N/A   Scattered Clouds
4:55 AM 75.4 °F - 72.5 °F 91% 30.05 in 10.0 mi SSW 9.2 mph - N/A   Scattered Clouds
5:15 AM 75.2 °F - 72.5 °F 91% 30.05 in 10.0 mi SSW 6.9 mph - N/A   Clear
5:35 AM 75.0 °F - 72.5 °F 92% 30.05 in 10.0 mi SSW 6.9 mph - N/A   Scattered Clouds
5:55 AM 74.7 °F - 72.5 °F 93% 30.05 in 10.0 mi SSW 6.9 mph - N/A   Clear
6:15 AM 74.8 °F - 72.7 °F 93% 30.04 in 10.0 mi SSW 6.9 mph - N/A   Clear
6:35 AM 74.8 °F - 72.9 °F 94% 30.05 in 10.0 mi SW 6.9 mph - N/A   Clear
6:55 AM 75.7 °F - 73.0 °F 91% 30.05 in 10.0 mi SW 8.1 mph - N/A   Clear
6:56 AM 75.2 °F - 73.4 °F 94% 30.05 in 10.0 mi SW 8.1 mph - N/A   Clear
7:56 AM 77.0 °F - 73.4 °F 89% 30.07 in 10.0 mi SW 10.4 mph - N/A   Overcast
8:56 AM 80.6 °F 84.6 °F 71.6 °F 74% 30.07 in 10.0 mi SW 13.8 mph 17.3 mph N/A   Scattered Clouds
9:56 AM 82.4 °F 87.2 °F 71.6 °F 70% 30.06 in 10.0 mi SW 13.8 mph 19.6 mph N/A   Scattered Clouds
10:56 AM 86.0 °F 91.8 °F 71.6 °F 62% 30.06 in 10.0 mi WSW 11.5 mph 17.3 mph N/A   Scattered Clouds
11:56 AM 87.8 °F 92.6 °F 69.8 °F 55% 30.05 in 10.0 mi SW 15.0 mph 18.4 mph N/A   Mostly Cloudy
12:56 PM 89.6 °F 94.7 °F 69.8 °F 52% 30.04 in 10.0 mi SW 11.5 mph 19.6 mph N/A   Scattered Clouds
1:56 PM 89.6 °F 94.7 °F 69.8 °F 52% 30.01 in 10.0 mi SW 12.7 mph 17.3 mph N/A   Scattered Clouds
2:56 PM 89.6 °F 94.7 °F 69.8 °F 52% 29.99 in 10.0 mi SW 13.8 mph - N/A   Scattered Clouds
3:56 PM 91.4 °F 96.8 °F 69.8 °F 49% 29.97 in 10.0 mi SW 11.5 mph 18.4 mph N/A   Scattered Clouds
4:56 PM 87.8 °F 93.8 °F 71.6 °F 58% 29.96 in 10.0 mi South 12.7 mph - N/A   Scattered Clouds
5:56 PM 87.8 °F 92.6 °F 69.8 °F 55% 29.96 in 10.0 mi South 12.7 mph 18.4 mph N/A   Clear
6:56 PM 87.8 °F 93.8 °F 71.6 °F 58% 29.96 in 10.0 mi South 12.7 mph 19.6 mph N/A   Clear
7:56 PM 84.2 °F 89.6 °F 71.6 °F 66% 29.98 in 10.0 mi SSW 10.4 mph - N/A   Scattered Clouds
8:56 PM 80.6 °F 84.6 °F 71.6 °F 74% 30.00 in 10.0 mi SSW 10.4 mph - N/A   Clear
9:15 PM 81.0 °F 84.9 °F 71.1 °F 72% 30.01 in 10.0 mi South 13.8 mph - N/A   Clear
9:35 PM 80.1 °F 83.6 °F 71.2 °F 74% 30.01 in 10.0 mi SSW 9.2 mph - N/A   Clear
9:55 PM 79.9 °F - 70.9 °F 74% 30.01 in 10.0 mi SSW 15.0 mph 18.4 mph N/A   Clear
10:15 PM 79.2 °F - 70.9 °F 76% 30.02 in 10.0 mi SSW 9.2 mph 16.1 mph N/A   Clear
10:35 PM 78.8 °F - 70.7 °F 76% 30.03 in 10.0 mi SSW 10.4 mph - N/A   Clear
10:55 PM 78.1 °F - 71.1 °F 79% 30.03 in 10.0 mi SSW 9.2 mph - N/A   Clear
11:15 PM 77.9 °F - 71.6 °F 81% 30.03 in 10.0 mi SSW 9.2 mph - N/A   Clear
11:35 PM 77.4 °F - 71.6 °F 82% 30.03 in 10.0 mi SSW 10.4 mph - N/A   Clear
11:55 PM 77.2 °F - 71.6 °F 83% 30.03 in 10.0 mi SSW 10.4 mph - N/A   Clear